This is the latest recevied weather packets stored in our database for station/object N0QV. If no packets are shown the sender has not sent any weather packets the latest 10 day(s).
| Time | Temp. | Humidity | Pressure | Rain* | Wind** | Luminosity | Snow |
|---|---|---|---|---|---|---|---|
| 1788022684 | 26.11° C | 64% | 1011.5 hPa | 0 mm | - | 621 W/m² | - |
| 1788022383 | 26.67° C | 64% | 1011.6 hPa | 0 mm | - | 622 W/m² | - |
| 1788022082 | 26.67° C | 65% | 1011.5 hPa | 0 mm | - | 612 W/m² | - |
| 1788021776 | 26.11° C | 64% | 1011.6 hPa | 0 mm | - | 636 W/m² | - |
| 1788021475 | 26.11° C | 66% | 1011.7 hPa | 0 mm | - | 628 W/m² | - |
| 1788021174 | 26.11° C | 67% | 1011.7 hPa | 0 mm | - | 570 W/m² | - |
| 1788020865 | 26.67° C | 66% | 1012 hPa | 0 mm | - | 632 W/m² | - |
| 1788020560 | 26.11° C | 70% | 1012 hPa | 0 mm | - | 643 W/m² | - |
| 1788020256 | 26.11° C | 68% | 1012.1 hPa | 0 mm | - | 641 W/m² | - |
| 1788019952 | 25.56° C | 70% | 1012.2 hPa | 0 mm | - | 573 W/m² | - |
| 1788019652 | 25.56° C | 67% | 1012 hPa | 0 mm | - | 530 W/m² | - |
| 1788019351 | 25° C | 69% | 1012.2 hPa | 0 mm | - | 520 W/m² | - |
| 1788019050 | 25° C | 69% | 1012 hPa | 0 mm | - | 442 W/m² | - |
| 1788018749 | 25° C | 69% | 1012 hPa | 0 mm | - | 506 W/m² | - |
| 1788018444 | 25° C | 71% | 1012.2 hPa | 0 mm | - | 470 W/m² | - |
| 1788018144 | 25° C | 68% | 1011.9 hPa | 0 mm | - | 478 W/m² | - |
| 1788017840 | 25.56° C | 71% | 1012.2 hPa | 0 mm | - | 507 W/m² | - |
| 1788017536 | 25° C | 73% | 1012.2 hPa | 0 mm | - | 456 W/m² | - |
| 1788017233 | 24.44° C | 72% | 1012.1 hPa | 0 mm | - | 500 W/m² | - |
| 1788016928 | 23.89° C | 73% | 1012.1 hPa | 0 mm | - | 356 W/m² | - |
| 1788016627 | 23.89° C | 71% | 1011.9 hPa | 0 mm | - | 381 W/m² | - |
| 1788016326 | 23.89° C | 74% | 1011.7 hPa | 0 mm | - | 352 W/m² | - |
| 1788016026 | 23.89° C | 74% | 1011.5 hPa | 0 mm | - | 435 W/m² | - |
| 1788015720 | 22.78° C | 74% | 1011.6 hPa | 0 mm | - | 424 W/m² | - |
| 1788015415 | 22.78° C | 77% | 1011.5 hPa | 0 mm | - | 204 W/m² | - |
* Rain latest hour (hover to see other rain measurements)
** Current wind speed in m/s (hover to see current wind gust speed)